Orbital Elements at Epoch 2459000.5 (2020-May-31.0) TDB
Reference: JPL 22 (heliocentric ecliptic J2000)
Element | Value | Uncertainty (1-sigma) | Units |
e | .0129399993104883 | 6.3368e-08 | |
a | 2.541529013173715 | 1.307e-08 | au |
q | 2.508641629495661 | 1.5926e-07 | au |
i | 10.19402231056841 | 5.4627e-06 | deg |
node | 226.0577372059084 | 2.2843e-05 | deg |
peri | .7775705795116815 | 0.00018526 | deg |
M | 181.4274796698288 | 0.00018152 | deg |
tp | 2459734.596514469278 (2022-Jun-04.09651447) | 0.00074652 | TDB |
period | 1479.929525104479 4.05 | 1.1416e-05 3.126e-08 | d yr |
n | .2432548265935738 | 1.8765e-09 | deg/d |
Q | 2.574416396851769 | 1.3239e-08 | au |
|
| | Orbit Determination Parameters
Additional Information
|